FDX1058 EYVI-ENGM

Flight info

Callsign FDX1058
Flight time 1h 32m
Altitude 34000
Route ELEKA DCT ASKOR DCT EBURI N623 ESEBA
Aircraft MD11/H-SDE1E2E3FGHIJ2J3J4J5M1RWXY/LB1D1

Departure

Time 2026-05-06 10:40
Airport Vilnius International Airport (EYVI)

Arrival

Time 2026-05-06 12:12
Airport Oslo-Gardermoen International Airport (ENGM)
Time Latitude Longitude Altitude Speed Heading
2026-05-06 09:49 54.63983 25.28297 622 ft 0 kts 76°
2026-05-06 10:23 54.63982 25.28296 622 ft 2 kts 76°
2026-05-06 10:23 54.63979 25.28257 636 ft 4 kts 102°
2026-05-06 10:24 54.63987 25.28223 635 ft 4 kts 144°
2026-05-06 10:24 54.64008 25.28205 634 ft 3 kts 166°
2026-05-06 10:24 54.64011 25.28204 622 ft 0 kts 166°
2026-05-06 10:30 54.64009 25.28204 632 ft 1 kts 166°
2026-05-06 10:30 54.63986 25.28214 634 ft 5 kts 167°
2026-05-06 10:30 54.63950 25.28228 635 ft 5 kts 167°
2026-05-06 10:31 54.63917 25.28240 633 ft 6 kts 167°
2026-05-06 10:31 54.63861 25.28261 634 ft 10 kts 167°
2026-05-06 10:31 54.63787 25.28290 634 ft 10 kts 167°
2026-05-06 10:31 54.63722 25.28315 629 ft 9 kts 167°
2026-05-06 10:32 54.63671 25.28334 622 ft 7 kts 167°
2026-05-06 10:32 54.63622 25.28354 622 ft 9 kts 167°
2026-05-06 10:32 54.63556 25.28364 622 ft 10 kts 189°
2026-05-06 10:32 54.63483 25.28315 625 ft 13 kts 201°
2026-05-06 10:33 54.63386 25.28248 633 ft 17 kts 202°
2026-05-06 10:33 54.63280 25.28174 631 ft 16 kts 202°
2026-05-06 10:33 54.63186 25.28109 635 ft 14 kts 202°
2026-05-06 10:33 54.63101 25.28050 624 ft 12 kts 202°
2026-05-06 10:34 54.63029 25.28000 633 ft 10 kts 202°
2026-05-06 10:34 54.62969 25.27959 628 ft 8 kts 202°
2026-05-06 10:34 54.62923 25.27926 622 ft 6 kts 202°
2026-05-06 10:34 54.62902 25.27912 622 ft 0 kts 202°
2026-05-06 10:35 54.62882 25.27898 628 ft 5 kts 202°
2026-05-06 10:35 54.62836 25.27866 624 ft 9 kts 202°
2026-05-06 10:35 54.62773 25.27822 622 ft 9 kts 202°
2026-05-06 10:36 54.62711 25.27779 629 ft 11 kts 202°
2026-05-06 10:36 54.62627 25.27721 622 ft 14 kts 202°
2026-05-06 10:36 54.62547 25.27665 631 ft 10 kts 201°
2026-05-06 10:36 54.62512 25.27672 635 ft 6 kts 156°
2026-05-06 10:37 54.62459 25.27731 622 ft 10 kts 142°
2026-05-06 10:37 54.62413 25.27822 631 ft 11 kts 111°
2026-05-06 10:37 54.62418 25.27873 620 ft 2 kts 49°
2026-05-06 10:37 54.62431 25.27893 627 ft 3 kts 34°
2026-05-06 10:38 54.62444 25.27902 633 ft 0 kts 22°
2026-05-06 10:39 54.62734 25.28105 630 ft 87 kts 21°
2026-05-06 10:39 54.63534 25.28659 624 ft 156 kts 21°
2026-05-06 10:40 54.64610 25.29379 1114 ft 165 kts 20°
2026-05-06 10:40 54.65650 25.30086 2091 ft 160 kts 26°
2026-05-06 10:40 54.66704 25.30820 2797 ft 170 kts 27°
2026-05-06 10:40 54.67842 25.31624 3401 ft 182 kts 26°
2026-05-06 10:41 54.69049 25.32477 3981 ft 200 kts 25°
2026-05-06 10:41 54.70442 25.33458 4196 ft 227 kts 25°
2026-05-06 10:41 54.71999 25.34550 4489 ft 251 kts 24°
2026-05-06 10:41 54.73637 25.35693 5102 ft 259 kts 23°
2026-05-06 10:42 54.75311 25.36854 5750 ft 261 kts 22°
2026-05-06 10:42 54.77032 25.38005 6251 ft 268 kts 17°
2026-05-06 10:42 54.78905 25.38488 6495 ft 282 kts 353°
2026-05-06 10:42 54.80755 25.37312 6715 ft 289 kts 317°
2026-05-06 10:43 54.81973 25.34644 7433 ft 282 kts 292°
2026-05-06 10:43 54.82625 25.31474 8328 ft 278 kts 277°
2026-05-06 10:43 54.82778 25.29295 8915 ft 275 kts 267°
2026-05-06 10:44 54.82130 25.22780 10178 ft 292 kts 258°
2026-05-06 10:44 54.81945 25.19101 10337 ft 320 kts 264°
2026-05-06 10:44 54.81856 25.15090 10644 ft 341 kts 265°
2026-05-06 10:44 54.81768 25.10965 11450 ft 345 kts 264°
2026-05-06 10:45 54.81613 25.05426 12515 ft 349 kts 264°
2026-05-06 10:45 54.81517 25.02580 13047 ft 352 kts 263°
2026-05-06 10:45 54.81359 24.98327 13790 ft 356 kts 263°
2026-05-06 10:45 54.81185 24.94028 14460 ft 359 kts 263°
2026-05-06 10:46 54.81003 24.89694 15114 ft 362 kts 263°
2026-05-06 10:46 54.80813 24.85329 15755 ft 365 kts 263°
2026-05-06 10:46 54.80619 24.80915 16365 ft 369 kts 263°
2026-05-06 10:46 54.80556 24.76459 16958 ft 374 kts 270°
2026-05-06 10:47 54.80971 24.71993 17563 ft 382 kts 283°
2026-05-06 10:47 54.82060 24.67765 18141 ft 391 kts 299°
2026-05-06 10:47 54.83833 24.64110 18635 ft 401 kts 313°
2026-05-06 10:47 54.86001 24.61086 19119 ft 408 kts 320°
2026-05-06 10:48 54.88347 24.58269 19596 ft 412 kts 322°
2026-05-06 10:48 54.90739 24.55484 20060 ft 415 kts 322°
2026-05-06 10:48 54.93129 24.52660 20522 ft 418 kts 321°
2026-05-06 10:48 54.95531 24.49750 20997 ft 421 kts 320°
2026-05-06 10:49 54.97922 24.46794 21470 ft 424 kts 320°
2026-05-06 10:49 55.00319 24.43790 21937 ft 427 kts 320°
2026-05-06 10:49 55.02737 24.40736 22438 ft 430 kts 320°
2026-05-06 10:49 55.05168 24.37652 22895 ft 433 kts 319°
2026-05-06 10:50 55.07614 24.34540 23390 ft 436 kts 319°
2026-05-06 10:50 55.10072 24.31408 23826 ft 439 kts 319°
2026-05-06 10:50 55.12546 24.28253 24307 ft 442 kts 319°
2026-05-06 10:50 55.15038 24.25071 24781 ft 444 kts 319°
2026-05-06 10:51 55.17536 24.21876 25245 ft 447 kts 319°
2026-05-06 10:51 55.20051 24.18654 25713 ft 449 kts 319°
2026-05-06 10:51 55.22577 24.15413 26151 ft 452 kts 319°
2026-05-06 10:51 55.25117 24.12149 26627 ft 454 kts 319°
2026-05-06 10:52 55.27658 24.08879 27121 ft 456 kts 319°
2026-05-06 10:52 55.30223 24.05572 27563 ft 458 kts 319°
2026-05-06 10:52 55.32803 24.02240 28002 ft 461 kts 319°
2026-05-06 10:52 55.35391 23.98892 28417 ft 464 kts 319°
2026-05-06 10:53 55.37996 23.95516 28833 ft 467 kts 319°
2026-05-06 10:53 55.40612 23.92120 29270 ft 470 kts 318°
2026-05-06 10:53 55.43250 23.88690 29648 ft 473 kts 318°
2026-05-06 10:53 55.45903 23.85235 30003 ft 475 kts 318°
2026-05-06 10:54 55.48570 23.81756 30329 ft 477 kts 318°
2026-05-06 10:54 55.51238 23.78266 30737 ft 477 kts 318°
2026-05-06 10:54 55.53884 23.74772 31171 ft 475 kts 317°
2026-05-06 10:54 55.56523 23.71277 31601 ft 474 kts 317°
2026-05-06 10:55 55.59158 23.67789 32021 ft 472 kts 317°
2026-05-06 10:55 55.61749 23.64366 32419 ft 471 kts 317°
2026-05-06 10:55 55.64407 23.60856 32867 ft 469 kts 317°
2026-05-06 10:55 55.66963 23.57482 33289 ft 465 kts 316°
2026-05-06 10:56 55.69556 23.54053 33694 ft 462 kts 316°
2026-05-06 10:56 55.72124 23.50633 33880 ft 464 kts 315°
2026-05-06 10:56 55.74719 23.47182 33905 ft 466 kts 316°
2026-05-06 10:57 55.79908 23.40288 33918 ft 466 kts 316°
2026-05-06 10:57 55.85095 23.33373 33920 ft 466 kts 316°
2026-05-06 10:58 55.90272 23.26440 33921 ft 466 kts 316°
2026-05-06 10:58 55.95438 23.19498 33941 ft 466 kts 315°
2026-05-06 10:59 56.00617 23.12510 33929 ft 467 kts 315°
2026-05-06 10:59 56.05792 23.05511 33937 ft 464 kts 315°
2026-05-06 11:00 56.10923 22.98545 33929 ft 463 kts 315°
2026-05-06 11:00 56.16041 22.91566 33937 ft 463 kts 315°
2026-05-06 11:01 56.21152 22.84511 33931 ft 462 kts 315°
2026-05-06 11:01 56.26248 22.77459 33933 ft 463 kts 315°
2026-05-06 11:02 56.31355 22.70410 33939 ft 463 kts 315°
2026-05-06 11:02 56.36464 22.63352 33941 ft 463 kts 315°
2026-05-06 11:03 56.41484 22.56137 33968 ft 457 kts 309°
2026-05-06 11:03 56.45810 22.48025 33961 ft 449 kts 304°
2026-05-06 11:04 56.49939 22.39563 33951 ft 450 kts 303°
2026-05-06 11:04 56.54114 22.31063 33950 ft 451 kts 304°
2026-05-06 11:05 56.58311 22.22604 33954 ft 452 kts 304°
2026-05-06 11:05 56.62513 22.14138 33955 ft 452 kts 304°
2026-05-06 11:06 56.66720 22.05635 33955 ft 451 kts 304°
2026-05-06 11:06 56.70904 21.97145 33957 ft 450 kts 304°
2026-05-06 11:07 56.75079 21.88640 33961 ft 450 kts 304°
2026-05-06 11:07 56.79244 21.80124 33962 ft 450 kts 304°
2026-05-06 11:08 56.83400 21.71596 33966 ft 450 kts 304°
2026-05-06 11:08 56.87553 21.63041 33961 ft 450 kts 303°
2026-05-06 11:09 56.91696 21.54480 33973 ft 448 kts 304°
2026-05-06 11:09 56.95818 21.45932 33966 ft 447 kts 303°
2026-05-06 11:10 56.99898 21.37328 33974 ft 447 kts 303°
2026-05-06 11:10 57.03977 21.28715 33979 ft 447 kts 303°
2026-05-06 11:11 57.08047 21.20155 33986 ft 447 kts 303°
2026-05-06 11:11 57.12143 21.11533 33996 ft 447 kts 303°
2026-05-06 11:12 57.16218 21.02932 33986 ft 446 kts 303°
2026-05-06 11:12 57.20287 20.94303 33983 ft 446 kts 303°
2026-05-06 11:13 57.24352 20.85652 34000 ft 446 kts 303°
2026-05-06 11:13 57.28403 20.77000 34000 ft 446 kts 303°
2026-05-06 11:14 57.32452 20.68321 34041 ft 446 kts 303°
2026-05-06 11:14 57.36516 20.59573 34006 ft 449 kts 303°
2026-05-06 11:15 57.40588 20.50779 34008 ft 449 kts 303°
2026-05-06 11:15 57.44656 20.41964 34006 ft 450 kts 303°
2026-05-06 11:16 57.48718 20.33129 34004 ft 450 kts 303°
2026-05-06 11:16 57.52755 20.24248 34013 ft 449 kts 303°
2026-05-06 11:17 57.56776 20.15308 34014 ft 453 kts 302°
2026-05-06 11:17 57.60836 20.06325 34016 ft 454 kts 303°
2026-05-06 11:18 57.64883 19.97384 34016 ft 454 kts 302°
2026-05-06 11:18 57.68950 19.88373 34017 ft 454 kts 302°
2026-05-06 11:19 57.73014 19.79330 34026 ft 454 kts 302°
2026-05-06 11:19 57.77072 19.70260 34037 ft 457 kts 302°
2026-05-06 11:20 57.81150 19.61114 34039 ft 456 kts 301°
2026-05-06 11:20 57.85217 19.51963 34026 ft 455 kts 301°
2026-05-06 11:21 57.89262 19.42819 34030 ft 455 kts 301°
2026-05-06 11:21 57.93301 19.33652 34027 ft 455 kts 301°
2026-05-06 11:22 57.97332 19.24468 34084 ft 456 kts 301°
2026-05-06 11:22 58.01361 19.15254 34028 ft 455 kts 301°
2026-05-06 11:23 58.05371 19.06004 34028 ft 455 kts 300°
2026-05-06 11:23 58.09339 18.96718 34029 ft 455 kts 300°
2026-05-06 11:24 58.13336 18.87409 34029 ft 455 kts 300°
2026-05-06 11:24 58.17333 18.78113 34050 ft 455 kts 300°
2026-05-06 11:25 58.21325 18.68810 34030 ft 455 kts 300°
2026-05-06 11:25 58.25306 18.59493 34041 ft 453 kts 300°
2026-05-06 11:26 58.29229 18.50275 34032 ft 450 kts 299°
2026-05-06 11:26 58.33144 18.41030 34030 ft 450 kts 299°
2026-05-06 11:27 58.37061 18.31749 34033 ft 450 kts 299°
2026-05-06 11:27 58.40978 18.22432 34033 ft 450 kts 299°
2026-05-06 11:28 58.44878 18.13118 34026 ft 449 kts 299°
2026-05-06 11:28 58.48774 18.03779 34028 ft 449 kts 299°
2026-05-06 11:29 58.52662 17.94422 34029 ft 449 kts 298°
2026-05-06 11:29 58.56544 17.85022 34029 ft 449 kts 298°
2026-05-06 11:30 58.60374 17.75579 34034 ft 448 kts 298°
2026-05-06 11:30 58.64202 17.66176 34029 ft 447 kts 298°
2026-05-06 11:31 58.68033 17.56786 34022 ft 447 kts 298°
2026-05-06 11:31 58.71844 17.47441 34017 ft 440 kts 298°
2026-05-06 11:32 58.75597 17.38194 34009 ft 438 kts 298°
2026-05-06 11:32 58.79340 17.28920 34002 ft 438 kts 298°
2026-05-06 11:33 58.82448 17.21204 34011 ft 436 kts 298°
2026-05-06 11:33 58.86163 17.11942 33989 ft 436 kts 297°
2026-05-06 11:34 58.90469 17.01163 33994 ft 436 kts 297°
2026-05-06 11:34 58.93570 16.93368 33995 ft 436 kts 297°
2026-05-06 11:35 58.97264 16.84050 33988 ft 436 kts 297°
2026-05-06 11:35 59.00925 16.74782 34020 ft 436 kts 297°
2026-05-06 11:36 59.04604 16.65428 33997 ft 436 kts 297°
2026-05-06 11:36 59.08262 16.56039 33996 ft 435 kts 297°
2026-05-06 11:37 59.11883 16.46602 33984 ft 435 kts 297°
2026-05-06 11:37 59.15529 16.37152 34000 ft 436 kts 297°
2026-05-06 11:38 59.19180 16.27708 33983 ft 436 kts 297°
2026-05-06 11:38 59.22820 16.18263 33990 ft 437 kts 298°
2026-05-06 11:39 59.26477 16.08722 33983 ft 438 kts 297°
2026-05-06 11:39 59.30128 15.99193 33983 ft 438 kts 297°
2026-05-06 11:40 59.33776 15.89629 33981 ft 438 kts 297°
2026-05-06 11:40 59.37411 15.80051 33982 ft 437 kts 297°
2026-05-06 11:41 59.41033 15.70465 33982 ft 437 kts 297°
2026-05-06 11:41 59.44651 15.60844 33980 ft 438 kts 297°
2026-05-06 11:42 59.48275 15.51177 33976 ft 438 kts 297°
2026-05-06 11:42 59.51883 15.41511 33973 ft 438 kts 297°
2026-05-06 11:43 59.55485 15.31820 33976 ft 438 kts 297°
2026-05-06 11:43 59.59044 15.22087 33981 ft 435 kts 297°
2026-05-06 11:44 59.64338 15.07536 33965 ft 435 kts 297°
2026-05-06 11:44 59.67863 14.97891 33963 ft 435 kts 297°
2026-05-06 11:45 59.71405 14.88185 33962 ft 435 kts 297°
2026-05-06 11:45 59.74951 14.78427 33959 ft 435 kts 297°
2026-05-06 11:46 59.78466 14.68650 33980 ft 433 kts 295°
2026-05-06 11:46 59.80993 14.58158 34010 ft 414 kts 278°
2026-05-06 11:47 59.82165 14.47090 33970 ft 408 kts 274°
2026-05-06 11:47 59.83155 14.35994 33967 ft 408 kts 274°
2026-05-06 11:48 59.84212 14.24899 33967 ft 409 kts 274°
2026-05-06 11:48 59.85308 14.13786 33968 ft 409 kts 275°
2026-05-06 11:49 59.86407 14.02684 33919 ft 407 kts 275°
2026-05-06 11:49 59.86949 13.97193 33672 ft 402 kts 274°
2026-05-06 11:49 59.87483 13.91746 33345 ft 403 kts 274°
2026-05-06 11:50 59.88014 13.86282 32802 ft 402 kts 274°
2026-05-06 11:50 59.88542 13.80821 32165 ft 401 kts 274°
2026-05-06 11:50 59.89066 13.75379 31552 ft 401 kts 274°
2026-05-06 11:50 59.89591 13.69912 30935 ft 401 kts 274°
2026-05-06 11:51 59.90111 13.64462 30369 ft 401 kts 274°
2026-05-06 11:51 59.90633 13.58972 29721 ft 402 kts 274°
2026-05-06 11:51 59.91151 13.53494 28977 ft 403 kts 274°
2026-05-06 11:51 59.91668 13.47991 28300 ft 405 kts 275°
2026-05-06 11:52 59.92185 13.42467 27622 ft 407 kts 275°
2026-05-06 11:52 59.92704 13.36899 26945 ft 409 kts 275°
2026-05-06 11:52 59.93223 13.31302 26275 ft 411 kts 275°
2026-05-06 11:52 59.93742 13.25704 25607 ft 409 kts 275°
2026-05-06 11:53 59.94248 13.20226 24937 ft 405 kts 275°
2026-05-06 11:53 59.94754 13.14722 24271 ft 402 kts 275°
2026-05-06 11:53 59.95252 13.09267 23608 ft 397 kts 276°
2026-05-06 11:53 59.95743 13.03861 22862 ft 394 kts 276°
2026-05-06 11:54 59.96225 12.98511 22164 ft 390 kts 276°
2026-05-06 11:54 59.96678 12.93211 21518 ft 387 kts 275°
2026-05-06 11:54 59.97115 12.87931 20866 ft 383 kts 276°
2026-05-06 11:54 59.97552 12.82712 20231 ft 380 kts 276°
2026-05-06 11:55 59.97995 12.77517 19607 ft 378 kts 276°
2026-05-06 11:55 59.98438 12.72350 18985 ft 375 kts 277°
2026-05-06 11:55 59.98876 12.67240 18575 ft 373 kts 277°
2026-05-06 11:55 59.99310 12.62158 18401 ft 365 kts 277°
2026-05-06 11:56 59.99727 12.57336 18297 ft 343 kts 277°
2026-05-06 11:56 60.00122 12.52773 18141 ft 323 kts 277°
2026-05-06 11:56 60.00492 12.48471 17971 ft 305 kts 276°
2026-05-06 11:56 60.00842 12.44371 17607 ft 295 kts 277°
2026-05-06 11:57 60.01363 12.40442 17111 ft 293 kts 289°
2026-05-06 11:57 60.02497 12.37029 16521 ft 300 kts 306°
2026-05-06 11:57 60.03994 12.34086 15950 ft 302 kts 311°
2026-05-06 11:57 60.05566 12.31300 15392 ft 301 kts 313°
2026-05-06 11:58 60.07141 12.28555 14841 ft 299 kts 313°
2026-05-06 11:58 60.08678 12.25884 14286 ft 286 kts 314°
2026-05-06 11:58 60.10189 12.23291 13774 ft 285 kts 314°
2026-05-06 11:58 60.11690 12.20714 13217 ft 285 kts 314°
2026-05-06 11:59 60.13193 12.18125 12679 ft 285 kts 315°
2026-05-06 11:59 60.14574 12.15381 12507 ft 280 kts 304°
2026-05-06 11:59 60.15782 12.12115 12542 ft 299 kts 302°
2026-05-06 11:59 60.16946 12.08809 12508 ft 281 kts 301°
2026-05-06 12:00 60.18071 12.05644 12527 ft 276 kts 301°
2026-05-06 12:00 60.19192 12.02526 12520 ft 275 kts 302°
2026-05-06 12:00 60.20323 11.99418 12526 ft 275 kts 302°
2026-05-06 12:00 60.21458 11.96323 12551 ft 275 kts 302°
2026-05-06 12:01 60.22592 11.93246 12231 ft 279 kts 302°
2026-05-06 12:01 60.23760 11.90088 11802 ft 276 kts 303°
2026-05-06 12:01 60.24886 11.87061 11433 ft 262 kts 303°
2026-05-06 12:01 60.25939 11.84233 11218 ft 251 kts 303°
2026-05-06 12:02 60.26997 11.81379 11108 ft 252 kts 303°
2026-05-06 12:02 60.28046 11.78547 11033 ft 252 kts 303°
2026-05-06 12:02 60.29090 11.75727 10883 ft 253 kts 303°
2026-05-06 12:02 60.30195 11.72985 10504 ft 254 kts 314°
2026-05-06 12:03 60.31766 11.71279 10122 ft 263 kts 342°
2026-05-06 12:03 60.33577 11.70839 9581 ft 268 kts 354°
2026-05-06 12:03 60.35433 11.70709 8922 ft 266 kts 355°
2026-05-06 12:03 60.37247 11.70313 8290 ft 257 kts 339°
2026-05-06 12:04 60.38755 11.68470 7638 ft 249 kts 310°
2026-05-06 12:04 60.39571 11.65536 6964 ft 241 kts 281°
2026-05-06 12:04 60.39568 11.62181 6426 ft 233 kts 258°
2026-05-06 12:04 60.39217 11.58964 6191 ft 235 kts 256°
2026-05-06 12:05 60.38859 11.55741 6068 ft 235 kts 257°
2026-05-06 12:05 60.38524 11.52494 5939 ft 237 kts 258°
2026-05-06 12:05 60.38212 11.49242 5745 ft 235 kts 259°
2026-05-06 12:05 60.37919 11.46029 5429 ft 236 kts 260°
2026-05-06 12:06 60.37635 11.42772 5121 ft 236 kts 260°
2026-05-06 12:06 60.37358 11.39509 4795 ft 234 kts 260°
2026-05-06 12:06 60.37090 11.36279 4505 ft 231 kts 261°
2026-05-06 12:06 60.36827 11.33076 4261 ft 232 kts 261°
2026-05-06 12:07 60.36566 11.29892 4002 ft 229 kts 261°
2026-05-06 12:07 60.36308 11.26715 3758 ft 229 kts 261°
2026-05-06 12:07 60.36056 11.23597 3671 ft 215 kts 261°
2026-05-06 12:07 60.35738 11.20809 3530 ft 193 kts 250°
2026-05-06 12:08 60.35089 11.18515 3483 ft 188 kts 231°
2026-05-06 12:08 60.34045 11.16915 3351 ft 192 kts 205°
2026-05-06 12:08 60.32836 11.15999 3052 ft 181 kts 203°
2026-05-06 12:08 60.31651 11.15129 2865 ft 182 kts 202°
2026-05-06 12:09 60.30455 11.14314 2580 ft 181 kts 199°
2026-05-06 12:09 60.29251 11.13612 2324 ft 180 kts 199°
2026-05-06 12:09 60.28046 11.12924 2074 ft 180 kts 198°
2026-05-06 12:09 60.26847 11.12235 1799 ft 179 kts 197°
2026-05-06 12:10 60.25691 11.11555 1508 ft 165 kts 197°
2026-05-06 12:10 60.24584 11.10910 1307 ft 164 kts 197°
2026-05-06 12:10 60.23486 11.10264 1095 ft 163 kts 197°
2026-05-06 12:10 60.22403 11.09628 854 ft 161 kts 197°
2026-05-06 12:11 60.21330 11.09004 690 ft 157 kts 196°
2026-05-06 12:11 60.20404 11.08469 690 ft 117 kts 196°
2026-05-06 12:11 60.19756 11.08095 690 ft 79 kts 196°
2026-05-06 12:11 60.19327 11.07851 686 ft 51 kts 195°
2026-05-06 12:12 60.18997 11.07659 679 ft 52 kts 196°
2026-05-06 12:12 60.18704 11.07492 679 ft 29 kts 195°
2026-05-06 12:12 60.18584 11.07552 678 ft 15 kts 112°
2026-05-06 12:12 60.18558 11.07717 678 ft 10 kts 106°
2026-05-06 12:13 60.18573 11.07795 678 ft 5 kts 40°
2026-05-06 12:13 60.18613 11.07830 679 ft 7 kts 18°
2026-05-06 12:13 60.18668 11.07864 681 ft 9 kts 17°
2026-05-06 12:13 60.18735 11.07901 680 ft 11 kts 16°
2026-05-06 12:14 60.18799 11.07945 679 ft 9 kts 30°
2026-05-06 12:14 60.18812 11.08036 682 ft 7 kts 94°
2026-05-06 12:14 60.18835 11.08121 681 ft 7 kts 34°
2026-05-06 12:14 60.18889 11.08161 687 ft 9 kts 15°
2026-05-06 12:15 60.18961 11.08200 687 ft 12 kts 15°
2026-05-06 12:15 60.19031 11.08241 683 ft 11 kts 16°
2026-05-06 12:15 60.19109 11.08286 686 ft 12 kts 16°
2026-05-06 12:15 60.19154 11.08316 688 ft 1 kts 29°
2026-05-06 12:16 60.19159 11.08324 693 ft 0 kts 40°
2026-05-06 12:16 60.19159 11.08330 693 ft 1 kts 55°
2026-05-06 12:16 60.19162 11.08355 693 ft 1 kts 81°
2026-05-06 12:16 60.19160 11.08385 693 ft 2 kts 97°
2026-05-06 12:17 60.19157 11.08411 693 ft 3 kts 100°
2026-05-06 12:17 60.19150 11.08458 684 ft 5 kts 106°
2026-05-06 12:17 60.19143 11.08509 684 ft 1 kts 106°
2026-05-06 12:17 60.19141 11.08526 691 ft 0 kts 105°